Carlsbad, NM

6:26 AM MST on February 22, 2017 (GMT -0700)
Cavern City

Weather History for KCNM - February, 2014

Change the Weather History Date:

Thursday, February 27, 2014

  Actual Average Record
Temperature  
Mean Temperature 54 °F -  
Max Temperature 79 °F 65 °F 82 °F (1976)
Min Temperature 30 °F 36 °F 19 °F (2002)
Degree Days  
Heating Degree Days 10    
Growing Degree Days 4 (Base 50)    
Moisture  
Dew Point 28 °F    
Average Humidity 51    
Maximum Humidity 96    
Minimum Humidity 12    
Precipitation  
Precipitation 0.00 in - - ()
Sea Level Pressure  
Sea Level Pressure 29.84 in    
Wind  
Wind Speed 7 mph (SSW)    
Max Wind Speed 31 mph    
Max Gust Speed 40 mph    
Visibility 8 miles    
Events      
Averages and records for this station are not official NWS values.
T = Trace of Precipitation, MM = Missing Value Source: NWS Daily Summary

Daily Weather History Graph

Daily Weather History Graph

Search for Another Location

Airport or City:

Trip Planner

Search our weather history database for the weather conditions in past years. The results will help you decide how hot, cold, wet, or windy it might be!

Date:

Astronomy

Feb. 27, 2014 Rise Set
Actual Time 6:26 AM MST 5:53 PM MST
Civil Twilight 6:02 AM MST 6:17 PM MST
Nautical Twilight 5:33 AM MST 6:46 PM MST
Astronomical Twilight 5:05 AM MST 7:14 PM MST
Moon 4:56 AM MST (2/27) 4:24 PM MST (2/27)
Length of Visible Light 12h 15m
Length of Day
11h 26m
Waning Crescent, 4% of the Moon is Illuminated
Feb 27
Waning Crescent
Mar 1
New
Mar 8
First Quarter
Mar 16
Full
Mar 23
Last Quarter

Hourly Weather History & Observations

Time (MST) Temp. Windchill Dew Point Humidity Pressure Visibility Wind Dir Wind Speed Gust Speed Precip Events Conditions
12:10 AM 30.0 °F 25.2 °F 28.9 °F 96% 30.04 in 3.0 mi ESE 4.6 mph - N/A   Scattered Clouds
12:21 AM 30.0 °F 26.5 °F 28.0 °F 92% 30.04 in 4.0 mi SE 3.5 mph - N/A   Mostly Cloudy
12:53 AM 30.9 °F 27.5 °F 28.9 °F 92% 30.04 in 4.0 mi East 3.5 mph - N/A   Overcast
1:53 AM 33.1 °F 30.0 °F 30.0 °F 89% 30.03 in 5.0 mi ENE 3.5 mph - N/A   Overcast
2:53 AM 34.0 °F - 30.0 °F 85% 30.02 in 5.0 mi Calm Calm - N/A   Overcast
3:53 AM 35.1 °F 32.2 °F 30.0 °F 82% 30.01 in 6.0 mi ENE 3.5 mph - N/A   Haze
4:53 AM 35.1 °F 32.2 °F 30.0 °F 82% 30.01 in 6.0 mi East 3.5 mph - N/A   Haze
5:53 AM 34.0 °F 31.0 °F 28.9 °F 82% 30.01 in 6.0 mi ENE 3.5 mph - N/A   Haze
6:53 AM 34.0 °F - 30.0 °F 85% 30.02 in 4.0 mi Calm Calm - N/A   Overcast
7:51 AM 35.6 °F - 30.2 °F 81% 30.02 in 4.0 mi Calm Calm - N/A   Haze
7:53 AM 36.0 °F - 30.9 °F 82% 30.02 in 4.0 mi Calm Calm - N/A   Haze
8:53 AM 41.0 °F - 32.0 °F 70% 30.00 in 5.0 mi Calm Calm - N/A   Haze
9:53 AM 45.0 °F 41.8 °F 30.9 °F 58% 29.96 in 8.0 mi SSE 5.8 mph - N/A   Clear
10:53 AM 52.0 °F - 33.1 °F 49% 29.91 in 9.0 mi SSE 9.2 mph - N/A   Clear
11:53 AM 57.0 °F - 33.1 °F 40% 29.85 in 10.0 mi SE 8.1 mph - N/A   Clear
12:53 PM 64.0 °F - 33.1 °F 31% 29.78 in 10.0 mi ESE 9.2 mph - N/A   Clear
1:53 PM 72.0 °F - 30.9 °F 22% 29.70 in 10.0 mi SSW 8.1 mph - N/A   Clear
2:22 PM 79.0 °F - 25.0 °F 14% 29.75 in 10.0 mi SW 26.5 mph 29.9 mph N/A   Clear
2:53 PM 79.0 °F - 21.0 °F 12% 29.64 in 10.0 mi West 25.3 mph 34.5 mph N/A   Clear
3:53 PM 78.1 °F - 21.0 °F 12% 29.62 in 10.0 mi West 31.1 mph 40.3 mph 0.00 in   Clear
4:53 PM 75.9 °F - 21.9 °F 13% 29.63 in 10.0 mi West 18.4 mph 26.5 mph N/A   Clear
5:53 PM 71.1 °F - 23.0 °F 16% 29.64 in 10.0 mi West 9.2 mph - N/A   Clear
6:53 PM 66.9 °F - 23.0 °F 19% 29.64 in 10.0 mi SW 9.2 mph - N/A   Clear
7:53 PM 66.9 °F - 23.0 °F 19% 29.62 in 10.0 mi WSW 15.0 mph - N/A   Clear
8:53 PM 59.0 °F - 24.1 °F 26% 29.64 in 10.0 mi West 6.9 mph - N/A   Clear
9:53 PM 64.0 °F - 24.1 °F 22% 29.62 in 10.0 mi WSW 12.7 mph - N/A   Clear
10:53 PM 63.0 °F - 27.0 °F 26% 29.62 in 10.0 mi WSW 15.0 mph - N/A   Clear
11:53 PM 66.0 °F - 28.0 °F 24% 29.63 in 10.0 mi West 16.1 mph - N/A   Clear